星链-37881(STARLINK-37881)

导读

STARLINK-37881(NORAD编号69547)是美国太空探索技术公司(SpaceX)星链星座的低轨通信卫星,作为星链全球互联网组网的组成部分,运行于近地轨道,主要承担高速低延迟通信传输任务,服务偏远地区、海洋及航空场景的网络覆盖需求。截至2026年6月公开信息显示,该卫星属于星链持续扩展组网的发射批次,正常在轨运行,支撑星链面向家庭、商业及应急通信领域的服务能力,同其他星链卫星共同构成全球规模最大的低轨通信星座网络。

Basic Information
目录编号:
69547
目录名称:
STARLINK-37881
国际标识:
2026-135B
轨道中心:
EARTH
卫星名称:
星链-37881
卫星全名:
星链-37881(STARLINK-37881)
卫星状态:
在轨 (已飞行81 天)
发射日期:
2026-06-15 UTC
国别 :
美国 (US)
星等 :
--
Orbit Information
数据来源 国际轨道数据
星历时间: 2026-09-03T15:43:19+0800
20小时前
查看轨道信息
半长轴: 6843.669km
偏心率: 0.0001624
轨道倾角: 97.285°
近地点辐角 93.894°
升交点赤经 274.193°
平近点角 266.249°
近地点: 464.42km
远地点: 466.644km
周期: 93.906分钟
每日圈数: 15.33449
Detailed Information
固有亮度:
5
最大亮度:
2.5
卫星平台:
Starlink V1.0
覆盖范围:
全球
运营商:
太空探索技术公司
运营商所在国:
美国
制造商(研发单位):
太空探索技术公司
制造商所在国:
美国
使用方式:
暂无
Satellite Introduction
Starlink 计划是 SpaceX 推出的全球卫星互联网项目,通过发射低轨道卫星,为全球尤其是偏远地区提供高速、低延迟的互联网服务。自 2019 年起,Starlink 已部署数千颗卫星,旨在缩小全球数字鸿沟,推动互联网普及。该项目还为军事、航空等行业提供通信支持,带来广泛经济效益。
2D Orbit Map
3D Orbit Map
Orbit Altitude Analysis Chart
Orbit Inclination Analysis Chart
Orbit Comprehensive Analysis Chart
View Comprehensive Chart
Conjunction Data List
Event ID Objects TCA Miss Dist (km) Collision Risk Probability Collision Risk Index (CRI) Action
CDM_260905-065005-020506-954721
2026-09-05T
06:50:39+0000
2.795 km
极远距离
1.451366E-6 低风险 0.38
CDM_260904-171204-869506-954721
2026-09-04T
17:12:23+0000
2.851 km
极远距离
1.009318E-6 低风险 0.35
CDM_260903-020205-901306-954721
2026-09-03T
02:02:04+0000
2.996 km
极远距离
1.005337E-6 低风险 0.35